Location: Bieg
(49.3499°N, 10.3835°E)
Time: 00:15:19
(UTC+00:00)

Cosmos 1703 Rocket - Pass Details

Date: 23 May 2024
Orbit: 603 x 629 km, 82.5° (Epoch: 12 June)

Event Time Altitude Azimuth Distance (km) Brightness Sun altitude
Exits shadow 00:58:55 29° 188° (S) 1,143 4.4 -16.3°
Maximum altitude 01:01:08 89° 94° (E) 632 3.5 -16.2°
Drops below altitude 10° 01:05:37 10° 10° (N) 2,015 7.4 -15.8°
Sets 01:07:52 0° 11° (N) 2,929 8.5 -15.7°
